Simultaneous Nadir Overpasses (SNOs) Predictions

Prediction of SNOs over PacNW region [( 10.00, 139.50) to ( 22.70, 165.60)] between AQUA and NPP Satellites:

Table of predicted SNOs over PacNW region for the next 30.0 days since TLE Epoch: 6/11/2022
Index Date (AQUA) Time (AQUA) AQUA Lat,Lon Date (NPP) Time (NPP) NPP Lat,Lon Distance(km) Time Diff (sec)
1 06/12/2022 15:16:49 22.60, 158.87 06/12/2022 15:17:05 23.27, 155.82 321.89 16
2 06/20/2022 16:04:47 22.59, 146.92 06/20/2022 16:07:58 23.44, 143.13 399.21 191
3 06/23/2022 02:47:15 22.65, 159.42 06/23/2022 02:43:46 25.96, 156.11 497.57 209
4 06/28/2022 15:13:48 22.62, 159.71 06/28/2022 15:17:17 23.75, 155.86 412.99 209
5 07/01/2022 03:35:09 22.67, 147.49 07/01/2022 03:33:34 22.03, 144.39 326.27 95
